Regional Weather Roundup
Issued by NWS

Home | Current Version | Previous Version | Graphics & Text | Print | Product List | Glossary On
Versions: 1 2 3 4 5 6 7 8 9 10 11 12 13 14 15 16 17 18 19 20 21 22 23 24 25 26 27 28 29 30 31 32 33 34 35 36 37 38 39 40 41 42 43 44 45 46 47 48 49 50
000
ASUS45 KCYS 280110
RWRWY

WYOMING REGIONAL WEATHER ROUNDUP
NATIONAL WEATHER SERVICE CHEYENNE WY
700 PM MDT WED MAY 27 2015

NOTE:  "FAIR" INDICATES FEW OR NO CLOUDS BELOW 12,000 FEET
WITH NO SIGNIFICANT WEATHER AND/OR OBSTRUCTIONS TO VISIBILITY.

WYZ001-280200-
YELLOWSTONE NATIONAL PARK

CITY           SKY/WX    TMP DP  RH WIND       PRES   REMARKS
LK YELLOWSTONE   N/A     45  36  70 CALM      30.14F
W YELLOWSTONE  NOT AVBL

$$
WYZ002>013-054>058-071-098>099-280200-
NORTHERN WYOMING

CITY           SKY/WX    TMP DP  RH WIND       PRES   REMARKS
JACKSON        SUNNY     52  43  71 SW7       30.09F
CODY           PTSUNNY   61  50  67 NE7       29.97S
GREYBULL       CLOUDY    70  38  31 N3        29.92R
WORLAND        CLOUDY    61  45  55 N22G32    29.91R
SHERIDAN       FAIR      63  52  67 NW6       29.95R
BUFFALO        CLOUDY    63  50  62 N10       29.99R
GILLETTE       FAIR      64  54  69 NE7       29.95R
HULETT         FAIR      61  54  77 CALM      29.96R
NEWCASTLE      FAIR      68  43  40 CALM      29.95S

$$
WYZ014>020-022>026-101>103-280200-
CENTRAL WYOMING

CITY           SKY/WX    TMP DP  RH WIND       PRES   REMARKS
BIG PINEY      CLOUDY    52  41  66 NW7       30.12R
PINEDALE       CLOUDY    50  41  71 NW8       30.13S
DUBOIS         FAIR      50  34  53 W23G32    30.08R
LANDER         FAIR      62  45  53 CALM      29.98R
RIVERTON       FAIR      60  45  57 S10       29.99R
CASPER         FAIR      66  43  43 SW10      29.97S
DOUGLAS        FAIR      72  41  32 CALM      29.96S

$$
WYZ021-027>030-104>119-280200-
SOUTHERN WYOMING

CITY           SKY/WX    TMP DP  RH WIND       PRES   REMARKS
EVANSTON       FAIR      57  38  48 W14       30.14R
KEMMERER       FAIR      54  36  50 W9        30.15R
FORT BRIDGER   LGT RAIN  57  43  58 SW10      30.16R
ROCK SPRINGS   FAIR      51  44  77 SE8       30.12R
DIXON          CLOUDY    62  42  47 W15       30.12S THUNDER
RAWLINS        PTSUNNY   52  45  77 W20G25    30.11S
SARATOGA       FAIR      59  41  51 S13       30.11S
LARAMIE        PTSUNNY   58  39  49 W20G28    30.11R
CHEYENNE       CLOUDY    63  46  54 SE10      30.05R
TORRINGTON     PTSUNNY   71  49  45 SE9       29.95S
PINE BLUFFS    FAIR      63  50  63 E17       30.04R

$$



USA.gov is the U.S. government's official web portal to all federal, state and local government web resources and services.